| time (UTC) | temp F | wind direction | speed MPH | gust MPH | rain 1hr in | rain 24hr in | rain mn in | humidity % | barometer mb |
| 20260508060632 | 60 | 130 | 3.0 | 10.0 | 0.00 | 0.00 | 0.00 | 61 | 1010.3 |
| 20260508060131 | 60 | 220 | 4.0 | 11.0 | 0.00 | 0.00 | 0.00 | 61 | 1010.4 |
| 20260508055630 | 60 | 209 | 6.0 | 9.0 | 0.00 | 0.00 | 0.00 | 61 | 1010.4 |
| 20260508055129 | 60 | 226 | 0.0 | 12.0 | 0.00 | 0.00 | 0.00 | 61 | 1010.4 |
| 20260508054628 | 60 | 240 | 5.0 | 8.0 | 0.00 | 0.00 | 0.00 | 60 | 1010.4 |
| 20260508054127 | 60 | 227 | 1.0 | 15.0 | 0.00 | 0.00 | 0.00 | 61 | 1010.3 |
| 20260508053626 | 60 | 284 | 1.0 | 13.0 | 0.00 | 0.00 | 0.00 | 61 | 1010.3 |
| 20260508053125 | 60 | 217 | 1.0 | 9.0 | 0.00 | 0.00 | 0.00 | 61 | 1010.3 |
| 20260508052624 | 61 | 267 | 0.0 | 7.0 | 0.00 | 0.00 | 0.00 | 60 | 1010.4 |
| 20260508052123 | 61 | 181 | 6.0 | 8.0 | 0.00 | 0.00 | 0.00 | 60 | 1010.4 |
| 20260508051622 | 61 | 132 | 1.0 | 13.0 | 0.00 | 0.00 | 0.00 | 60 | 1010.4 |
| 20260508051121 | 61 | 213 | 2.0 | 16.0 | 0.00 | 0.00 | 0.00 | 61 | 1010.4 |
| 20260508050620 | 61 | 215 | 6.0 | 8.0 | 0.00 | 0.00 | 0.00 | 60 | 1010.5 |
| 20260508050119 | 61 | 158 | 3.0 | 13.0 | 0.00 | 0.00 | 0.00 | 60 | 1010.5 |
| 20260508045618 | 61 | 272 | 2.0 | 13.0 | 0.00 | 0.00 | 0.00 | 60 | 1010.5 |
| 20260508045117 | 61 | 212 | 3.0 | 12.0 | 0.00 | 0.00 | 0.00 | 60 | 1010.5 |
| 20260508044616 | 61 | 216 | 7.0 | 12.0 | 0.00 | 0.00 | 0.00 | 60 | 1010.5 |
| 20260508044115 | 61 | 180 | 0.0 | 11.0 | 0.00 | 0.00 | 0.00 | 60 | 1010.6 |
| 20260508043615 | 61 | 126 | 2.0 | 13.0 | 0.00 | 0.00 | 0.00 | 60 | 1010.7 |
| 20260508043113 | 61 | 187 | 3.0 | 11.0 | 0.00 | 0.00 | 0.00 | 60 | 1010.7 |
| 20260508042612 | 61 | 191 | 5.0 | 10.0 | 0.00 | 0.00 | 0.00 | 60 | 1010.7 |
| 20260508042111 | 61 | 201 | 3.0 | 6.0 | 0.00 | 0.00 | 0.00 | 60 | 1010.7 |
| 20260508041610 | 61 | 136 | 1.0 | 10.0 | 0.00 | 0.00 | 0.00 | 59 | 1010.7 |
| 20260508041109 | 61 | 212 | 0.0 | 9.0 | 0.00 | 0.00 | 0.00 | 59 | 1010.8 |
| 20260508040608 | 61 | 171 | 2.0 | 13.0 | 0.00 | 0.00 | 0.00 | 60 | 1010.7 |
| 20260508040107 | 61 | 210 | 0.0 | 10.0 | 0.00 | 0.00 | 0.00 | 60 | 1010.8 |
| 20260508035606 | 61 | 106 | 1.0 | 11.0 | 0.00 | 0.00 | 0.00 | 59 | 1010.8 |
| 20260508035105 | 61 | 164 | 4.0 | 12.0 | 0.00 | 0.00 | 0.00 | 58 | 1010.8 |
| 20260508034604 | 62 | 92 | 1.0 | 7.0 | 0.00 | 0.00 | 0.00 | 58 | 1010.8 |
| 20260508034104 | 62 | 192 | 3.0 | 11.0 | 0.00 | 0.00 | 0.00 | 58 | 1010.8 |
| 20260508033602 | 62 | 202 | 3.0 | 7.0 | 0.00 | 0.00 | 0.00 | 58 | 1010.8 |
| 20260508033101 | 62 | 220 | 0.0 | 8.0 | 0.00 | 0.00 | 0.00 | 57 | 1010.8 |
| 20260508032600 | 62 | 78 | 2.0 | 13.0 | 0.00 | 0.00 | 0.00 | 57 | 1010.8 |
| 20260508032100 | 62 | 223 | 5.0 | 11.0 | 0.00 | 0.00 | 0.00 | 56 | 1010.8 |
| 20260508031558 | 63 | 175 | 8.0 | 10.0 | 0.00 | 0.00 | 0.00 | 56 | 1010.8 |
| 20260508031057 | 63 | 188 | 10.0 | 10.0 | 0.00 | 0.00 | 0.00 | 56 | 1010.8 |
| 20260508030556 | 63 | 164 | 0.0 | 10.0 | 0.00 | 0.00 | 0.00 | 56 | 1010.8 |
| 20260508030055 | 63 | 178 | 1.0 | 7.0 | 0.00 | 0.00 | 0.00 | 56 | 1010.6 |
| 20260508025554 | 63 | 227 | 1.0 | 11.0 | 0.00 | 0.00 | 0.00 | 55 | 1010.7 |
| 20260508025053 | 63 | 189 | 2.0 | 8.0 | 0.00 | 0.00 | 0.00 | 55 | 1010.6 |
| 20260508024552 | 63 | 161 | 0.0 | 10.0 | 0.00 | 0.00 | 0.00 | 55 | 1010.5 |
| 20260508024051 | 63 | 181 | 3.0 | 10.0 | 0.00 | 0.00 | 0.00 | 55 | 1010.4 |
| 20260508023550 | 63 | 220 | 1.0 | 10.0 | 0.00 | 0.00 | 0.00 | 54 | 1010.4 |
| 20260508023049 | 63 | 171 | 1.0 | 10.0 | 0.00 | 0.00 | 0.00 | 54 | 1010.4 |
| 20260508022548 | 64 | 192 | 1.0 | 6.0 | 0.00 | 0.00 | 0.00 | 54 | 1010.3 |
| 20260508022048 | 64 | 210 | 4.0 | 9.0 | 0.00 | 0.00 | 0.00 | 54 | 1010.2 |
| 20260508021546 | 64 | 205 | 4.0 | 11.0 | 0.00 | 0.00 | 0.00 | 53 | 1010.2 |
| 20260508021045 | 64 | 201 | 4.0 | 9.0 | 0.00 | 0.00 | 0.00 | 53 | 1010.1 |
| 20260508020544 | 64 | 191 | 0.0 | 10.0 | 0.00 | 0.00 | 0.00 | 53 | 1010.1 |
| 20260508020043 | 64 | 201 | 3.0 | 15.0 | 0.00 | 0.00 | 0.00 | 53 | 1010.1 |
| 20260508015542 | 64 | 177 | 3.0 | 7.0 | 0.00 | 0.00 | 0.00 | 52 | 1010.0 |
| 20260508015041 | 64 | 216 | 1.0 | 9.0 | 0.00 | 0.00 | 0.00 | 52 | 1010.0 |
| 20260508014540 | 65 | 168 | 2.0 | 7.0 | 0.00 | 0.00 | 0.00 | 52 | 1010.1 |
| 20260508014039 | 65 | 209 | 2.0 | 9.0 | 0.00 | 0.00 | 0.00 | 51 | 1010.0 |
| 20260508013538 | 65 | 163 | 0.0 | 6.0 | 0.00 | 0.00 | 0.00 | 51 | 1010.0 |
| 20260508013037 | 65 | 194 | 0.0 | 9.0 | 0.00 | 0.00 | 0.00 | 51 | 1010.0 |
| 20260508012536 | 65 | 205 | 1.0 | 5.0 | 0.00 | 0.00 | 0.00 | 51 | 1010.0 |
| 20260508012035 | 66 | 94 | 0.0 | 6.0 | 0.00 | 0.00 | 0.00 | 50 | 1010.0 |
| 20260508011534 | 66 | 219 | 1.0 | 8.0 | 0.00 | 0.00 | 0.00 | 49 | 1010.0 |
| 20260508011033 | 66 | 208 | 0.0 | 9.0 | 0.00 | 0.00 | 0.00 | 48 | 1009.9 |
| 20260508010533 | 66 | 201 | 0.0 | 6.0 | 0.00 | 0.00 | 0.00 | 48 | 1009.9 |
| 20260508010031 | 67 | 222 | 0.0 | 5.0 | 0.00 | 0.00 | 0.00 | 48 | 1009.9 |
| 20260508005530 | 67 | 172 | 0.0 | 2.0 | 0.00 | 0.00 | 0.00 | 48 | 1009.9 |
| 20260508005029 | 67 | 146 | 0.0 | 4.0 | 0.00 | 0.00 | 0.00 | 47 | 1009.8 |
| 20260508004528 | 67 | 210 | 3.0 | 7.0 | 0.00 | 0.00 | 0.00 | 47 | 1009.8 |
| 20260508004028 | 67 | 191 | 0.0 | 8.0 | 0.00 | 0.00 | 0.00 | 47 | 1009.8 |
| 20260508003526 | 67 | 205 | 0.0 | 2.0 | 0.00 | 0.00 | 0.00 | 47 | 1009.9 |
| 20260508003026 | 68 | 154 | 1.0 | 10.0 | 0.00 | 0.00 | 0.00 | 45 | 1009.9 |
| 20260508002524 | 68 | 202 | 1.0 | 8.0 | 0.00 | 0.00 | 0.00 | 45 | 1010.0 |
| 20260508002024 | 68 | 215 | 2.0 | 6.0 | 0.00 | 0.00 | 0.00 | 45 | 1010.0 |
| 20260508001522 | 68 | 229 | 2.0 | 9.0 | 0.00 | 0.00 | 0.00 | 45 | 1010.1 |
| 20260508001021 | 68 | 206 | 0.0 | 8.0 | 0.00 | 0.00 | 0.00 | 45 | 1010.2 |
| 20260508000520 | 68 | 147 | 2.0 | 9.0 | 0.00 | 0.00 | 0.00 | 45 | 1010.3 |
| 20260508000020 | 68 | 248 | 3.0 | 4.0 | 0.00 | 0.00 | 0.00 | 45 | 1010.4 |
| 20260507235518 | 68 | 226 | 0.0 | 5.0 | 0.00 | 0.00 | 0.00 | 44 | 1010.3 |
| 20260507235017 | 68 | 165 | 0.0 | 8.0 | 0.00 | 0.00 | 0.00 | 45 | 1010.4 |
| 20260507234517 | 68 | 215 | 4.0 | 11.0 | 0.00 | 0.00 | 0.00 | 44 | 1010.5 |
| 20260507234014 | 68 | 213 | 1.0 | 10.0 | 0.00 | 0.00 | 0.00 | 44 | 1010.4 |
| 20260507233513 | 69 | 319 | 1.0 | 6.0 | 0.00 | 0.00 | 0.00 | 44 | 1010.5 |
| 20260507233012 | 69 | 147 | 6.0 | 10.0 | 0.00 | 0.00 | 0.00 | 45 | 1010.4 |
| 20260507232511 | 69 | 278 | 0.0 | 0.0 | 0.00 | 0.00 | 0.00 | 46 | 1010.5 |
| 20260507232011 | 69 | 278 | 0.0 | 9.0 | 0.00 | 0.00 | 0.00 | 44 | 1010.5 |
| 20260507231509 | 69 | 196 | 2.0 | 10.0 | 0.00 | 0.00 | 0.00 | 45 | 1010.5 |
| 20260507231009 | 69 | 246 | 3.0 | 9.0 | 0.00 | 0.00 | 0.00 | 43 | 1010.4 |
| 20260507230507 | 69 | 239 | 2.0 | 7.0 | 0.00 | 0.00 | 0.00 | 43 | 1010.4 |
| 20260507230006 | 69 | 217 | 3.0 | 14.0 | 0.00 | 0.00 | 0.00 | 41 | 1010.5 |
| 20260507225505 | 70 | 182 | 0.0 | 4.0 | 0.00 | 0.00 | 0.00 | 45 | 1010.5 |
| 20260507225005 | 70 | 217 | 0.0 | 7.0 | 0.00 | 0.00 | 0.00 | 43 | 1010.5 |
| 20260507224504 | 70 | 205 | 0.0 | 11.0 | 0.00 | 0.00 | 0.00 | 44 | 1010.5 |
| 20260507224003 | 70 | 156 | 5.0 | 12.0 | 0.00 | 0.00 | 0.00 | 42 | 1010.5 |
| 20260507223501 | 70 | 213 | 0.0 | 10.0 | 0.00 | 0.00 | 0.00 | 42 | 1010.6 |
| 20260507223001 | 70 | 246 | 0.0 | 11.0 | 0.00 | 0.00 | 0.00 | 43 | 1010.6 |
| 20260507222500 | 70 | 226 | 2.0 | 7.0 | 0.00 | 0.00 | 0.00 | 44 | 1010.6 |
| 20260507221958 | 70 | 194 | 2.0 | 12.0 | 0.00 | 0.00 | 0.00 | 45 | 1010.6 |
| 20260507221457 | 70 | 216 | 0.0 | 8.0 | 0.00 | 0.00 | 0.00 | 44 | 1010.6 |
| 20260507220956 | 69 | 222 | 6.0 | 12.0 | 0.00 | 0.00 | 0.00 | 45 | 1010.7 |
| 20260507220455 | 69 | 222 | 0.0 | 14.0 | 0.00 | 0.00 | 0.00 | 44 | 1010.7 |
| 20260507215955 | 69 | 158 | 6.0 | 15.0 | 0.00 | 0.00 | 0.00 | 44 | 1010.7 |
| 20260507215454 | 69 | 216 | 7.0 | 9.0 | 0.00 | 0.00 | 0.00 | 46 | 1010.8 |
| 20260507214952 | 69 | 265 | 3.0 | 12.0 | 0.00 | 0.00 | 0.00 | 45 | 1010.9 |
| 20260507214451 | 69 | 229 | 5.0 | 15.0 | 0.00 | 0.00 | 0.00 | 45 | 1010.9 |
| 20260507213950 | 69 | 157 | 6.0 | 11.0 | 0.00 | 0.00 | 0.00 | 46 | 1010.9 |
| 20260507213449 | 68 | 236 | 0.0 | 12.0 | 0.00 | 0.00 | 0.00 | 46 | 1011.1 |
| 20260507212948 | 68 | 220 | 0.0 | 9.0 | 0.00 | 0.00 | 0.00 | 47 | 1011.2 |
| 20260507212447 | 68 | 208 | 2.0 | 10.0 | 0.00 | 0.00 | 0.00 | 47 | 1011.4 |
| 20260507211946 | 68 | 253 | 3.0 | 13.0 | 0.00 | 0.00 | 0.00 | 46 | 1011.3 |
| 20260507211446 | 68 | 217 | 0.0 | 12.0 | 0.00 | 0.00 | 0.00 | 48 | 1011.4 |
| 20260507210944 | 68 | 192 | 2.0 | 12.0 | 0.00 | 0.00 | 0.00 | 49 | 1011.5 |
| 20260507210444 | 68 | 243 | 1.0 | 8.0 | 0.00 | 0.00 | 0.00 | 48 | 1011.8 |
| 20260507205943 | 68 | 240 | 7.0 | 9.0 | 0.00 | 0.00 | 0.00 | 48 | 1011.8 |
| 20260507205441 | 68 | 175 | 0.0 | 12.0 | 0.00 | 0.00 | 0.00 | 48 | 1011.9 |
| 20260507204940 | 68 | 180 | 1.0 | 10.0 | 0.00 | 0.00 | 0.00 | 47 | 1012.0 |
| 20260507204438 | 68 | 161 | 8.0 | 10.0 | 0.00 | 0.00 | 0.00 | 48 | 1011.8 |
| 20260507203938 | 67 | 307 | 8.0 | 12.0 | 0.00 | 0.00 | 0.00 | 48 | 1012.0 |
| 20260507203436 | 67 | 281 | 3.0 | 11.0 | 0.00 | 0.00 | 0.00 | 51 | 1012.0 |
| 20260507202935 | 67 | 237 | 2.0 | 15.0 | 0.00 | 0.00 | 0.00 | 50 | 1012.1 |
| 20260507202434 | 67 | 187 | 8.0 | 14.0 | 0.00 | 0.00 | 0.00 | 47 | 1012.4 |
| 20260507201933 | 67 | 217 | 2.0 | 13.0 | 0.00 | 0.00 | 0.00 | 48 | 1012.4 |
| 20260507201433 | 67 | 237 | 5.0 | 12.0 | 0.00 | 0.00 | 0.00 | 48 | 1012.5 |
| 20260507200931 | 67 | 317 | 4.0 | 15.0 | 0.00 | 0.00 | 0.00 | 51 | 1012.6 |
| 20260507200430 | 67 | 225 | 5.0 | 10.0 | 0.00 | 0.00 | 0.00 | 51 | 1012.6 |
| 20260507195929 | 66 | 243 | 0.0 | 11.0 | 0.00 | 0.00 | 0.00 | 51 | 1012.6 |
| 20260507195428 | 67 | 205 | 1.0 | 5.0 | 0.00 | 0.00 | 0.00 | 49 | 1012.7 |
| 20260507194927 | 67 | 226 | 2.0 | 9.0 | 0.00 | 0.00 | 0.00 | 50 | 1012.7 |
| 20260507194426 | 66 | 147 | 1.0 | 8.0 | 0.00 | 0.00 | 0.00 | 51 | 1012.7 |
| 20260507193925 | 66 | 215 | 4.0 | 15.0 | 0.00 | 0.00 | 0.00 | 51 | 1012.8 |
| 20260507193424 | 66 | 188 | 0.0 | 12.0 | 0.00 | 0.00 | 0.00 | 51 | 1012.9 |
| 20260507192923 | 66 | 116 | 7.0 | 19.0 | 0.00 | 0.00 | 0.00 | 53 | 1012.8 |
| 20260507192422 | 65 | 168 | 12.0 | 15.0 | 0.00 | 0.00 | 0.00 | 53 | 1013.0 |
| 20260507191921 | 65 | 254 | 2.0 | 13.0 | 0.00 | 0.00 | 0.00 | 52 | 1013.0 |
| 20260507191420 | 66 | 246 | 6.0 | 20.0 | 0.00 | 0.00 | 0.00 | 52 | 1013.0 |
| 20260507190920 | 66 | 212 | 0.0 | 15.0 | 0.00 | 0.00 | 0.00 | 52 | 1013.1 |
| 20260507190418 | 66 | 196 | 5.0 | 11.0 | 0.00 | 0.00 | 0.00 | 51 | 1013.3 |
| 20260507185917 | 65 | 257 | 0.0 | 11.0 | 0.00 | 0.00 | 0.00 | 52 | 1013.4 |
| 20260507185416 | 65 | 237 | 5.0 | 5.0 | 0.00 | 0.00 | 0.00 | 55 | 1013.5 |
| 20260507184915 | 64 | 296 | 1.0 | 12.0 | 0.00 | 0.00 | 0.00 | 54 | 1013.6 |
| 20260507184414 | 65 | 258 | 5.0 | 13.0 | 0.00 | 0.00 | 0.00 | 52 | 1013.7 |
| 20260507183914 | 65 | 217 | 3.0 | 12.0 | 0.00 | 0.00 | 0.00 | 53 | 1013.7 |
| 20260507183412 | 64 | 241 | 3.0 | 13.0 | 0.00 | 0.00 | 0.00 | 55 | 1013.7 |
| 20260507182910 | 64 | 288 | 3.0 | 17.0 | 0.00 | 0.00 | 0.00 | 55 | 1013.9 |
| 20260507182409 | 64 | 237 | 0.0 | 11.0 | 0.00 | 0.00 | 0.00 | 54 | 1013.9 |
| 20260507181909 | 64 | 237 | 7.0 | 7.0 | 0.00 | 0.00 | 0.00 | 55 | 1013.9 |
| 20260507181406 | 64 | 206 | 4.0 | 14.0 | 0.00 | 0.00 | 0.00 | 53 | 1013.9 |
| 20260507180905 | 64 | 282 | 3.0 | 13.0 | 0.00 | 0.00 | 0.00 | 56 | 1013.9 |
| 20260507180404 | 64 | 237 | 5.0 | 7.0 | 0.00 | 0.00 | 0.00 | 54 | 1014.0 |
| 20260507175904 | 64 | 210 | 0.0 | 12.0 | 0.00 | 0.00 | 0.00 | 56 | 1014.1 |
| 20260507175403 | 63 | 241 | 4.0 | 15.0 | 0.00 | 0.00 | 0.00 | 57 | 1014.2 |
| 20260507174902 | 64 | 255 | 2.0 | 9.0 | 0.00 | 0.00 | 0.00 | 52 | 1014.2 |
| 20260507174400 | 64 | 226 | 6.0 | 15.0 | 0.00 | 0.00 | 0.00 | 54 | 1014.3 |
| 20260507173900 | 63 | 222 | 1.0 | 12.0 | 0.00 | 0.00 | 0.00 | 57 | 1014.5 |
| 20260507173358 | 62 | 281 | 6.0 | 17.0 | 0.00 | 0.00 | 0.00 | 55 | 1014.5 |
| 20260507172857 | 63 | 251 | 1.0 | 4.0 | 0.00 | 0.00 | 0.00 | 57 | 1014.5 |
| 20260507172356 | 62 | 320 | 0.0 | 13.0 | 0.00 | 0.00 | 0.00 | 56 | 1014.6 |
| 20260507171855 | 63 | 227 | 2.0 | 14.0 | 0.00 | 0.00 | 0.00 | 54 | 1014.6 |
| 20260507171354 | 63 | 251 | 2.0 | 8.0 | 0.00 | 0.00 | 0.00 | 58 | 1014.7 |
| 20260507170853 | 63 | 312 | 1.0 | 12.0 | 0.00 | 0.00 | 0.00 | 55 | 1014.7 |
| 20260507170352 | 62 | 257 | 5.0 | 9.0 | 0.00 | 0.00 | 0.00 | 56 | 1014.8 |
| 20260507165852 | 62 | 189 | 4.0 | 11.0 | 0.00 | 0.00 | 0.00 | 57 | 1014.9 |
| 20260507165350 | 61 | 247 | 1.0 | 13.0 | 0.00 | 0.00 | 0.00 | 59 | 1014.9 |
| 20260507164849 | 62 | 343 | 2.0 | 7.0 | 0.00 | 0.00 | 0.00 | 57 | 1015.2 |
| 20260507164349 | 62 | 180 | 0.0 | 12.0 | 0.00 | 0.00 | 0.00 | 55 | 1015.2 |
| 20260507163848 | 62 | 255 | 0.0 | 11.0 | 0.00 | 0.00 | 0.00 | 57 | 1015.3 |
| 20260507163347 | 62 | 278 | 6.0 | 12.0 | 0.00 | 0.00 | 0.00 | 57 | 1015.3 |
| 20260507162846 | 62 | 277 | 4.0 | 17.0 | 0.00 | 0.00 | 0.00 | 59 | 1015.4 |
| 20260507162344 | 62 | 225 | 5.0 | 13.0 | 0.00 | 0.00 | 0.00 | 59 | 1015.4 |
| 20260507161844 | 61 | 230 | 2.0 | 6.0 | 0.00 | 0.00 | 0.00 | 59 | 1015.4 |
| 20260507161342 | 60 | 255 | 4.0 | 15.0 | 0.00 | 0.00 | 0.00 | 59 | 1015.5 |
| 20260507160841 | 60 | 268 | 1.0 | 15.0 | 0.00 | 0.00 | 0.00 | 58 | 1015.4 |
| 20260507160340 | 60 | 310 | 0.0 | 19.0 | 0.00 | 0.00 | 0.00 | 60 | 1015.5 |
| 20260507155839 | 61 | 251 | 3.0 | 12.0 | 0.00 | 0.00 | 0.00 | 59 | 1015.5 |
| 20260507155338 | 61 | 241 | 3.0 | 14.0 | 0.00 | 0.00 | 0.00 | 58 | 1015.4 |
| 20260507154837 | 61 | 233 | 5.0 | 10.0 | 0.00 | 0.00 | 0.00 | 56 | 1015.5 |
| 20260507154336 | 62 | 209 | 4.0 | 9.0 | 0.00 | 0.00 | 0.00 | 57 | 1015.5 |
| 20260507153835 | 61 | 265 | 0.0 | 12.0 | 0.00 | 0.00 | 0.00 | 59 | 1015.5 |
| 20260507153533 | 60 | 240 | 1.0 | 10.0 | 0.00 | 0.00 | 0.00 | 63 | 1015.6 |
| 20260507153334 | 60 | 240 | 1.0 | 10.0 | 0.00 | 0.00 | 0.00 | 63 | 1015.6 |
| 20260507152855 | 60 | 244 | 2.0 | 10.0 | 0.00 | 0.00 | 0.00 | 60 | 1015.7 |
| 20260507152833 | 60 | 262 | 4.0 | 9.0 | 0.00 | 0.00 | 0.00 | 61 | 1015.6 |
| 20260507152333 | 60 | 244 | 2.0 | 10.0 | 0.00 | 0.00 | 0.00 | 60 | 1015.7 |
| 20260507152316 | 60 | 265 | 3.0 | 14.0 | 0.00 | 0.00 | 0.00 | 61 | 1015.7 |
| 20260507151832 | 60 | 265 | 3.0 | 14.0 | 0.00 | 0.00 | 0.00 | 61 | 1015.7 |
| 20260507151331 | 60 | 223 | 7.0 | 16.0 | 0.00 | 0.00 | 0.00 | 60 | 1015.8 |
| 20260507150829 | 60 | 267 | 2.0 | 9.0 | 0.00 | 0.00 | 0.00 | 58 | 1016.0 |
| 20260507150328 | 60 | 247 | 3.0 | 7.0 | 0.00 | 0.00 | 0.00 | 63 | 1016.0 |
| 20260507145828 | 59 | 210 | 0.0 | 9.0 | 0.00 | 0.00 | 0.00 | 62 | 1016.0 |
| 20260507145327 | 59 | 248 | 0.0 | 6.0 | 0.00 | 0.00 | 0.00 | 61 | 1016.1 |
| 20260507144825 | 59 | 202 | 1.0 | 8.0 | 0.00 | 0.00 | 0.00 | 63 | 1016.0 |
| 20260507144325 | 59 | 126 | 0.0 | 7.0 | 0.00 | 0.00 | 0.00 | 64 | 1016.1 |
| 20260507143824 | 58 | 248 | 4.0 | 7.0 | 0.00 | 0.00 | 0.00 | 63 | 1016.1 |
| 20260507143322 | 58 | 212 | 2.0 | 7.0 | 0.00 | 0.00 | 0.00 | 63 | 1016.0 |
| 20260507142821 | 58 | 262 | 4.0 | 7.0 | 0.00 | 0.00 | 0.00 | 64 | 1016.1 |
| 20260507142320 | 57 | 225 | 1.0 | 8.0 | 0.00 | 0.00 | 0.00 | 64 | 1016.0 |
| 20260507141819 | 57 | 244 | 2.0 | 5.0 | 0.00 | 0.00 | 0.00 | 63 | 1016.1 |
| 20260507141318 | 57 | 241 | 0.0 | 11.0 | 0.00 | 0.00 | 0.00 | 63 | 1016.2 |
| 20260507140818 | 57 | 219 | 0.0 | 5.0 | 0.00 | 0.00 | 0.00 | 65 | 1016.3 |
| 20260507140316 | 57 | 178 | 4.0 | 4.0 | 0.00 | 0.00 | 0.00 | 66 | 1016.2 |
| 20260507135815 | 57 | 154 | 0.0 | 3.0 | 0.00 | 0.00 | 0.00 | 67 | 1016.2 |
| 20260507135315 | 56 | 233 | 1.0 | 5.0 | 0.00 | 0.00 | 0.00 | 67 | 1016.2 |
| 20260507134813 | 56 | 201 | 0.0 | 4.0 | 0.00 | 0.00 | 0.00 | 69 | 1016.2 |
| 20260507134313 | 56 | 215 | 0.0 | 3.0 | 0.00 | 0.00 | 0.00 | 69 | 1016.2 |
| 20260507133812 | 55 | 258 | 0.0 | 5.0 | 0.00 | 0.00 | 0.00 | 71 | 1016.2 |
| 20260507133310 | 55 | 139 | 0.0 | 6.0 | 0.00 | 0.00 | 0.00 | 70 | 1016.2 |
| 20260507132809 | 54 | 194 | 0.0 | 5.0 | 0.00 | 0.00 | 0.00 | 73 | 1016.3 |
| 20260507132308 | 53 | 199 | 3.0 | 5.0 | 0.00 | 0.00 | 0.00 | 72 | 1016.4 |
| 20260507131808 | 53 | 139 | 0.0 | 2.0 | 0.00 | 0.00 | 0.00 | 74 | 1016.5 |
| 20260507131306 | 53 | 139 | 0.0 | 0.0 | 0.00 | 0.00 | 0.00 | 74 | 1016.5 |
| 20260507130805 | 52 | 139 | 0.0 | 1.0 | 0.00 | 0.00 | 0.00 | 75 | 1016.5 |
| 20260507130305 | 52 | 199 | 0.0 | 7.0 | 0.00 | 0.00 | 0.00 | 75 | 1016.5 |
| 20260507125803 | 51 | 239 | 0.0 | 2.0 | 0.00 | 0.01 | 0.00 | 76 | 1016.4 |
| 20260507125306 | 50 | 234 | 0.0 | 0.0 | 0.00 | 0.01 | 0.00 | 77 | 1016.5 |
| 20260507124801 | 50 | 199 | 0.0 | 1.0 | 0.00 | 0.01 | 0.00 | 77 | 1016.5 |
| 20260507124300 | 49 | 201 | 0.0 | 2.0 | 0.00 | 0.01 | 0.00 | 77 | 1016.6 |
| 20260507123800 | 49 | 225 | 1.0 | 2.0 | 0.00 | 0.01 | 0.00 | 78 | 1016.5 |
| 20260507123258 | 49 | 9 | 0.0 | 2.0 | 0.00 | 0.01 | 0.00 | 78 | 1016.5 |
| 20260507122758 | 48 | 9 | 0.0 | 0.0 | 0.00 | 0.01 | 0.00 | 79 | 1016.5 |
| 20260507122256 | 48 | 9 | 0.0 | 0.0 | 0.00 | 0.01 | 0.00 | 79 | 1016.6 |
| 20260507121757 | 47 | 9 | 0.0 | 0.0 | 0.00 | 0.01 | 0.00 | 79 | 1016.5 |
| 20260507121254 | 47 | 9 | 0.0 | 0.0 | 0.00 | 0.01 | 0.00 | 80 | 1016.5 |
| 20260507120752 | 47 | 9 | 0.0 | 2.0 | 0.00 | 0.01 | 0.00 | 80 | 1016.4 |
| 20260507120251 | 47 | 9 | 0.0 | 0.0 | 0.00 | 0.01 | 0.00 | 80 | 1016.5 |
| 20260507115751 | 47 | 9 | 0.0 | 0.0 | 0.00 | 0.01 | 0.00 | 80 | 1016.4 |
| 20260507115249 | 47 | 9 | 0.0 | 0.0 | 0.00 | 0.01 | 0.00 | 80 | 1016.4 |
| 20260507114748 | 46 | 9 | 0.0 | 0.0 | 0.00 | 0.01 | 0.00 | 81 | 1016.3 |
| 20260507114247 | 46 | 9 | 0.0 | 0.0 | 0.00 | 0.01 | 0.00 | 81 | 1016.4 |
| 20260507113747 | 46 | 9 | 0.0 | 0.0 | 0.00 | 0.01 | 0.00 | 80 | 1016.4 |
| 20260507113246 | 46 | 9 | 0.0 | 0.0 | 0.00 | 0.01 | 0.00 | 80 | 1016.4 |
| 20260507112744 | 46 | 9 | 0.0 | 0.0 | 0.00 | 0.01 | 0.00 | 79 | 1016.4 |
| 20260507112243 | 46 | 9 | 0.0 | 0.0 | 0.00 | 0.01 | 0.00 | 79 | 1016.3 |
| 20260507111742 | 46 | 9 | 0.0 | 0.0 | 0.00 | 0.01 | 0.00 | 78 | 1016.3 |
| 20260507111241 | 46 | 9 | 0.0 | 0.0 | 0.00 | 0.01 | 0.00 | 78 | 1016.2 |
| 20260507110740 | 46 | 9 | 0.0 | 0.0 | 0.00 | 0.01 | 0.00 | 78 | 1016.2 |
| 20260507110239 | 46 | 9 | 0.0 | 0.0 | 0.00 | 0.01 | 0.00 | 78 | 1016.2 |
| 20260507105738 | 46 | 9 | 0.0 | 0.0 | 0.00 | 0.01 | 0.00 | 77 | 1016.2 |
| 20260507105237 | 46 | 9 | 0.0 | 0.0 | 0.00 | 0.01 | 0.00 | 77 | 1016.2 |
| 20260507104736 | 46 | 9 | 0.0 | 0.0 | 0.00 | 0.01 | 0.00 | 77 | 1016.2 |
| 20260507104235 | 46 | 9 | 0.0 | 0.0 | 0.00 | 0.01 | 0.00 | 77 | 1016.2 |
| 20260507103734 | 46 | 9 | 0.0 | 0.0 | 0.00 | 0.01 | 0.00 | 77 | 1016.2 |
| 20260507103233 | 46 | 9 | 0.0 | 0.0 | 0.00 | 0.01 | 0.00 | 76 | 1016.2 |
| 20260507102732 | 46 | 9 | 0.0 | 0.0 | 0.00 | 0.01 | 0.00 | 76 | 1016.2 |
| 20260507102231 | 46 | 9 | 0.0 | 0.0 | 0.00 | 0.01 | 0.00 | 76 | 1016.3 |
| 20260507101730 | 47 | 9 | 0.0 | 0.0 | 0.00 | 0.01 | 0.00 | 1016.3 | |
| 20260507101229 | 46 | 9 | 0.0 | 0.0 | 0.00 | 0.01 | 0.00 | 66 | 1016.2 |
| 20260507100728 | 46 | 9 | 0.0 | 0.0 | 0.00 | 0.01 | 0.00 | 66 | 1016.2 |
| 20260507100227 | 47 | 9 | 0.0 | 0.0 | 0.00 | 0.01 | 0.00 | 66 | 1016.2 |
| 20260507095726 | 46 | 9 | 0.0 | 0.0 | 0.00 | 0.01 | 0.00 | 66 | 1016.3 |
| 20260507095225 | 46 | 9 | 0.0 | 0.0 | 0.00 | 0.01 | 0.00 | 66 | 1016.3 |
| 20260507094724 | 46 | 9 | 0.0 | 0.0 | 0.00 | 0.01 | 0.00 | 66 | 1016.3 |
| 20260507094223 | 46 | 9 | 0.0 | 0.0 | 0.00 | 0.01 | 0.00 | 66 | 1016.4 |
| 20260507093722 | 46 | 9 | 0.0 | 0.0 | 0.00 | 0.01 | 0.00 | 65 | 1016.4 |
| 20260507093221 | 46 | 9 | 0.0 | 0.0 | 0.00 | 0.01 | 0.00 | 66 | 1016.4 |
| 20260507092721 | 46 | 9 | 0.0 | 0.0 | 0.00 | 0.01 | 0.00 | 66 | 1016.5 |
| 20260507092219 | 46 | 9 | 0.0 | 0.0 | 0.00 | 0.01 | 0.00 | 66 | 1016.5 |
| 20260507091718 | 46 | 9 | 0.0 | 0.0 | 0.00 | 0.01 | 0.00 | 66 | 1016.5 |
| 20260507091217 | 47 | 9 | 0.0 | 0.0 | 0.00 | 0.01 | 0.00 | 65 | 1016.6 |
| 20260507090716 | 47 | 9 | 0.0 | 0.0 | 0.00 | 0.01 | 0.00 | 65 | 1016.5 |
| 20260507090215 | 47 | 9 | 0.0 | 0.0 | 0.00 | 0.01 | 0.00 | 65 | 1016.5 |
| 20260507085714 | 47 | 9 | 0.0 | 0.0 | 0.00 | 0.01 | 0.00 | 65 | 1016.4 |
| 20260507085213 | 47 | 9 | 0.0 | 0.0 | 0.00 | 0.01 | 0.00 | 64 | 1016.5 |
| 20260507084712 | 46 | 9 | 0.0 | 0.0 | 0.00 | 0.01 | 0.00 | 65 | 1016.5 |
| 20260507084211 | 46 | 9 | 0.0 | 0.0 | 0.00 | 0.01 | 0.00 | 65 | 1016.6 |
| 20260507083710 | 46 | 9 | 0.0 | 0.0 | 0.00 | 0.01 | 0.00 | 65 | 1016.6 |
| 20260507083209 | 46 | 9 | 0.0 | 0.0 | 0.00 | 0.01 | 0.00 | 65 | 1016.6 |
| 20260507082708 | 46 | 9 | 0.0 | 0.0 | 0.00 | 0.01 | 0.00 | 66 | 1016.6 |
| 20260507082207 | 46 | 9 | 0.0 | 0.0 | 0.00 | 0.01 | 0.00 | 66 | 1016.7 |
| 20260507081706 | 46 | 9 | 0.0 | 0.0 | 0.00 | 0.01 | 0.00 | 66 | 1016.7 |
| 20260507081205 | 46 | 9 | 0.0 | 0.0 | 0.00 | 0.01 | 0.00 | 66 | 1016.7 |
| 20260507080704 | 46 | 9 | 0.0 | 0.0 | 0.00 | 0.01 | 0.00 | 65 | 1016.6 |
| 20260507080203 | 46 | 9 | 0.0 | 0.0 | 0.00 | 0.01 | 0.00 | 65 | 1016.5 |
| 20260507075702 | 47 | 9 | 0.0 | 0.0 | 0.00 | 0.01 | 0.00 | 65 | 1016.5 |
| 20260507075201 | 47 | 9 | 0.0 | 0.0 | 0.00 | 0.01 | 0.00 | 65 | 1016.5 |
| 20260507074700 | 47 | 9 | 0.0 | 0.0 | 0.00 | 0.01 | 0.00 | 65 | 1016.5 |
| 20260507074159 | 47 | 9 | 0.0 | 0.0 | 0.00 | 0.01 | 0.00 | 65 | 1016.5 |
| 20260507073658 | 47 | 9 | 0.0 | 0.0 | 0.00 | 0.01 | 0.00 | 64 | 1016.6 |
| 20260507073157 | 47 | 9 | 0.0 | 0.0 | 0.00 | 0.01 | 0.00 | 64 | 1016.6 |
| 20260507072656 | 48 | 9 | 0.0 | 0.0 | 0.00 | 0.01 | 0.00 | 63 | 1016.6 |
| 20260507072155 | 48 | 9 | 0.0 | 0.0 | 0.00 | 0.01 | 0.00 | 63 | 1016.8 |
| 20260507071654 | 48 | 9 | 0.0 | 0.0 | 0.00 | 0.01 | 0.00 | 62 | 1016.8 |
| 20260507071153 | 48 | 9 | 0.0 | 0.0 | 0.00 | 0.01 | 0.00 | 61 | 1016.8 |
| 20260507070652 | 48 | 9 | 0.0 | 0.0 | 0.00 | 0.01 | 0.00 | 61 | 1016.9 |
| 20260507070151 | 49 | 9 | 0.0 | 0.0 | 0.00 | 0.01 | 0.00 | 60 | 1017.0 |
| 20260507065650 | 49 | 9 | 0.0 | 0.0 | 0.00 | 0.01 | 0.00 | 60 | 1017.0 |
| 20260507065149 | 49 | 9 | 0.0 | 0.0 | 0.00 | 0.01 | 0.00 | 60 | 1017.1 |
| 20260507064648 | 49 | 9 | 0.0 | 0.0 | 0.00 | 0.01 | 0.00 | 60 | 1017.1 |
| 20260507064147 | 49 | 9 | 0.0 | 0.0 | 0.00 | 0.01 | 0.00 | 59 | 1017.2 |
| 20260507063646 | 49 | 9 | 0.0 | 0.0 | 0.00 | 0.01 | 0.00 | 59 | 1017.2 |
| 20260507063145 | 49 | 9 | 0.0 | 0.0 | 0.00 | 0.01 | 0.00 | 58 | 1017.3 |
| 20260507062644 | 49 | 9 | 0.0 | 0.0 | 0.00 | 0.01 | 0.00 | 59 | 1017.2 |
| 20260507062143 | 49 | 9 | 0.0 | 0.0 | 0.00 | 0.01 | 0.00 | 60 | 1017.2 |
| 20260507061642 | 49 | 9 | 0.0 | 0.0 | 0.00 | 0.01 | 0.00 | 61 | 1017.2 |
| 20260507061141 | 49 | 9 | 0.0 | 0.0 | 0.00 | 0.01 | 0.00 | 61 | 1017.1 |